Home   Weather   Amadora   Past weeks

Flag for Portugal Past Weather in Amadora, Portugal — Yesterday and Last 2 Weeks

Now
63 °F

Passing clouds.


Feels Like: 63 °F
Forecast: 63 / 80 °F
Wind: 14 mph from North

Location: Lisbon Portela Airport

Current Time: Jul 22, 2017 at 6:03:44 am

Latest Report: Jul 22, 2017 at 5:30 am


Visibility: N/A

Pressure: 30.01 "Hg

Humidity: 88%

Dew Point: 59 °F

Location of AmadoraLocation

Past Weather in Amadora — Graph

°F

Amadora Temperature Yesterday

Maximum temperature yesterday: 75 °F (at 2:30 pm)
Minimum temperature yesterday: 61 °F (at 12:30 am)
Average temperature yesterday: 67 °F

High & Low Weather Summary for the Past Weeks

 TemperatureHumidityPressure
High90 °F (Jul 12, 2:30 pm)94% (Jul 7, 7:00 am)30.09 "Hg (Jul 7, 7:00 am)
Low61 °F (Jul 11, 2:30 am)27% (Jul 11, 4:00 pm)29.89 "Hg (Jul 17, 6:00 pm)
Average70 °F69%30.02 "Hg
* Reported Jul 7 4:00 am — Jul 22 4:30 am, Amadora. Weather by CustomWeather, © 2017

Note: Actual official high and low records may vary slightly from our data, if they occured in-between our weather recording intervals... More about our weather records

Advertising

Amadora Weather History for the Previous 24 Hours

Scroll right to see more
 ConditionsComfort  
Time TempWeatherWind HumidityBarometerVisibility
4:30 am
Sat, Jul 22
63 °FPassing clouds.12 mph88%30.01 "HgN/A
4:00 am64 °FPassing clouds.13 mph83%30.01 "HgN/A
3:30 am63 °FPassing clouds.13 mph88%30.01 "HgN/A
3:00 am64 °FPassing clouds.14 mph83%30.01 "HgN/A
2:30 am64 °FPassing clouds.14 mph83%30.01 "HgN/A
2:00 am63 °FPassing clouds.13 mph88%30.01 "HgN/A
1:30 am63 °FPassing clouds.13 mph88%30.01 "HgN/A
1:00 am63 °FPassing clouds.12 mph88%30.04 "HgN/A
12:30 am63 °FPassing clouds.12 mph88%30.04 "HgN/A
12:00 am64 °FPassing clouds.16 mph83%30.04 "HgN/A
11:30 pm
Fri, Jul 21
64 °FPassing clouds.14 mph83%30.04 "HgN/A
11:00 pm64 °FPassing clouds.18 mph83%30.01 "HgN/A
10:30 pm64 °FPassing clouds.18 mph83%30.04 "HgN/A
10:00 pm64 °FPassing clouds.21 mph83%30.01 "HgN/A
9:30 pm66 °FPassing clouds.18 mph73%30.01 "HgN/A
9:00 pm66 °FPassing clouds.15 mph73%30.01 "HgN/A
8:30 pm66 °FPassing clouds.15 mph73%30.01 "HgN/A
8:00 pm68 °FPassing clouds.17 mph69%30.01 "HgN/A
7:30 pm70 °FPassing clouds.15 mph60%30.01 "HgN/A
6:30 pm72 °FPassing clouds.20 mph57%29.98 "HgN/A
6:00 pm72 °FPassing clouds.21 mph57%30.01 "HgN/A
5:30 pm72 °FPassing clouds.22 mph61%30.01 "HgN/A
5:00 pm72 °FPassing clouds.25 mph57%30.01 "HgN/A
4:30 pm73 °FPassing clouds.21 mph53%30.01 "HgN/A
4:00 pm73 °FPassing clouds.18 mph53%30.01 "HgN/A
3:30 pm73 °FPassing clouds.17 mph50%30.01 "HgN/A
3:00 pm75 °FPassing clouds.20 mph47%30.01 "HgN/A
2:30 pm75 °FPassing clouds.18 mph47%30.01 "HgN/A
2:00 pm73 °FPassing clouds.20 mph50%30.01 "HgN/A
1:30 pm73 °FPassing clouds.17 mph47%30.01 "HgN/A
1:00 pm73 °FPassing clouds.18 mph50%30.04 "HgN/A
12:30 pm73 °FPassing clouds.20 mph47%30.01 "HgN/A
12:00 pm72 °FPassing clouds.18 mph53%30.04 "HgN/A
11:30 am72 °FPassing clouds.20 mph53%30.01 "HgN/A
11:00 am70 °FPassing clouds.20 mph57%30.01 "HgN/A
10:30 am70 °FPassing clouds.22 mph53%30.01 "HgN/A
10:00 am68 °FPassing clouds.16 mph60%30.01 "HgN/A
9:30 am66 °FPassing clouds.17 mph64%30.01 "HgN/A
9:00 am66 °FScattered clouds.13 mph64%30.01 "HgN/A
8:30 am63 °FScattered clouds.14 mph73%30.01 "HgN/A
8:00 am63 °FScattered clouds.13 mph73%30.01 "HgN/A
7:30 am61 °FScattered clouds.12 mph77%29.98 "HgN/A
7:00 am61 °FPassing clouds.13 mph77%29.98 "HgN/A
6:30 am61 °FPassing clouds.16 mph77%29.98 "HgN/A
6:00 am61 °FPassing clouds.15 mph77%29.98 "HgN/A
Weather by CustomWeather, © 2017

See weather overviewHow to use our weather pages